EST,Max TemperatureF,Mean TemperatureF,Min TemperatureF,Max Dew PointF,MeanDew PointF,Min DewpointF,Max Humidity, Mean Humidity, Min Humidity, Max Sea Level PressureIn, Mean Sea Level PressureIn, Min Sea Level PressureIn, Max VisibilityMiles, Mean VisibilityMiles, Min VisibilityMiles, Max Wind SpeedMPH, Mean Wind SpeedMPH, Max Gust SpeedMPH,PrecipitationIn, CloudCover, Events, WindDirDegrees
2012-11-1,44,40,36,36,32,28,86,73,55,29.82,29.72,29.68,10,10,7,18,13,32,0.00,8,Rain,314
2012-11-2,40,37,34,31,29,26,87,73,64,30.14,29.99,29.82,10,10,3,15,11,26,0.00,8,Rain-Snow,338
2012-11-3,36,34,33,31,27,26,89,73,65,30.23,30.20,30.14,10,10,4,12,6,,0.00,8,Snow,2
2012-11-4,41,36,32,30,28,24,73,70,58,30.23,30.21,30.18,10,10,10,10,4,20,0.00,7,,356
2012-11-5,35,32,30,32,23,19,93,69,56,30.27,30.23,30.13,10,10,10,9,5,,0.00,8,,46
2012-11-6,41,37,33,32,29,25,81,68,57,30.12,30.01,29.94,10,10,1,12,6,20,0.00,8,,150
2012-11-7,44,38,31,32,29,27,87,67,53,30.14,30.11,30.00,10,10,10,10,4,,0.00,7,,135
2012-11-8,46,44,41,39,36,31,90,73,66,30.14,30.09,30.00,10,10,4,17,6,26,0.00,8,Rain,210
2012-11-9,48,42,36,40,37,34,91,77,64,30.16,30.10,30.03,10,9,2,14,6,20,0.00,7,,340
2012-11-10,49,46,42,46,41,35,90,86,75,30.15,30.02,29.83,10,6,2,22,11,31,0.00,7,Rain,91
2012-11-11,65,56,47,53,48,45,90,70,57,29.85,29.77,29.66,10,9,2,20,9,33,0.00,5,Rain,178
2012-11-12,52,40,29,49,29,14,89,74,51,30.09,29.87,29.71,10,9,2,28,16,34,0.00,8,Rain-Snow,240
2012-11-13,39,35,31,30,25,19,78,68,61,30.43,30.32,30.10,10,10,10,23,14,30,0.00,6,,238
2012-11-14,42,40,37,32,31,26,78,69,58,30.46,30.41,30.34,10,10,10,13,8,20,0.00,5,,181
2012-11-15,47,43,39,41,36,29,79,72,64,30.34,30.28,30.23,10,10,7,17,9,26,0.00,5,,206
2012-11-16,41,34,26,36,24,20,83,66,46,30.50,30.45,30.33,10,10,10,9,5,16,0.00,0,,1
2012-11-17,46,36,25,40,31,22,95,86,75,30.51,30.49,30.47,10,7,0,13,2,17,0.00,3,Fog,163
2012-11-18,54,46,37,38,34,31,91,65,44,30.47,30.41,30.34,10,10,7,10,5,17,0.00,0,,154
2012-11-19,53,48,42,38,36,35,79,65,53,30.33,30.23,30.11,10,10,10,9,6,,0.00,3,,161
2012-11-20,52,46,36,45,41,34,91,81,68,30.15,30.10,30.08,10,7,0,8,3,,0.00,6,Fog,216
2012-11-21,51,44,37,45,42,35,93,81,70,30.15,30.07,29.94,10,6,0,15,4,23,0.00,5,Fog,198
2012-11-22,62,56,50,46,41,37,78,61,39,29.94,29.75,29.52,10,9,5,23,15,37,0.00,2,,200
2012-11-23,53,42,31,46,30,24,85,77,67,29.97,29.67,29.46,10,8,2,30,19,41,0.00,8,Rain-Snow,276
2012-11-24,32,30,29,24,21,17,75,67,59,30.09,30.02,29.92,10,10,7,18,12,32,0.00,8,Snow,314
2012-11-25,33,31,29,29,25,20,89,77,62,29.93,29.80,29.73,10,8,1,18,8,28,0.00,8,Snow,277
2012-11-26,30,28,27,22,18,14,74,64,55,30.27,30.13,29.94,10,10,7,16,11,22,0.00,7,Snow,294
2012-11-27,35,30,26,32,20,17,100,70,60,30.27,30.22,30.06,10,9,1,23,11,31,0.00,8,Snow,246
2012-11-28,35,32,28,25,19,15,75,64,55,30.22,30.17,30.09,10,10,10,21,12,28,0.00,6,Snow,266
2012-11-29,37,32,26,28,24,19,82,75,63,30.30,30.19,30.09,10,10,10,28,12,33,0.00,6,,10
2012-11-30,34,31,28,30,25,18,86,80,66,30.34,30.29,30.26,10,8,1,21,14,29,0.00,8,Snow,88